Flag for U.S.A. Weather past 2 weeks in Breckenridge, Colorado, U.S.A.

Now
46 °F

Broken clouds.


Feels Like: 40 °F
Forecast: 44 / 63 °F
Wind: 16 mph from Southeast

Location: Copper Mountain - Red Cliff Pass

Current Time: Oct 20, 2014 at 12:44:49 PM

Latest Report: Oct 20, 2014 at 12:17 PM


Visibility: 10 mi

Pressure: 30.49 "Hg

Humidity: 50%

Dew point: 28 °F

Location of BreckenridgeLocation

Historic Weather in Breckenridge — Graph

°F

Breckenridge temperature yesterday

Maximum temperature yesterday: 54 °F (at 12:17 PM)
Minimum temperature yesterday: 37 °F (at 12:17 AM)
Average temperature yesterday: 42 °F

Past Weeks' High & Low Weather Summary

 TemperatureHumidityPressure
High59 °F (Oct 8, 12:17 PM)93% (Oct 11, 2:37 AM)30.56 "Hg (Oct 11, 2:37 AM)
Low23 °F (Oct 13, 5:37 AM)2% (Oct 15, 2:57 AM)29.95 "Hg (Oct 12, 10:17 AM)
Average40 °F53%30.40 "Hg
* Reported Oct 5 11:15 AM — Oct 20 11:57 AM, Breckenridge, Weather by CustomWeather, © 2014

Note: Actual official high and low records may vary slightly from our data, if they occured in-between our weather recording intervals... More about our weather records

Advertising

Breckenridge weather history for previous 24 hours

 ConditionsComfort  
Time TempWeatherWind HumidityBarometerVisibility
11:57 AM
Oct 20
45 °FOvercast.18 mph53%30.50 "Hg10 mi
11:37 AM45 °FMore clouds than sun.15 mph53%30.50 "Hg10 mi
11:17 AM45 °FBroken clouds.13 mph53%30.51 "Hg10 mi
10:57 AM45 °FMostly cloudy.13 mph53%30.51 "Hg10 mi
10:37 AM45 °FPartly sunny.12 mph53%30.51 "Hg10 mi
10:17 AM45 °FScattered clouds.16 mph53%30.51 "Hg10 mi
9:57 AM45 °FSunny.14 mph53%30.51 "Hg10 mi
9:37 AM45 °FSunny.14 mph53%30.50 "Hg10 mi
9:17 AM45 °FSunny.15 mph53%30.50 "Hg10 mi
8:57 AM45 °FSunny.12 mph53%30.50 "Hg10 mi
8:37 AM43 °FSunny.13 mph57%30.50 "Hg10 mi
8:17 AM41 °FClear.15 mph57%30.49 "Hg10 mi
7:57 AM41 °FClear.13 mph57%30.49 "Hg10 mi
7:37 AM37 °FClear.14 mph60%30.48 "Hg10 mi
7:17 AM39 °FClear.12 mph56%30.48 "Hg10 mi
6:57 AM41 °FClear.13 mph57%30.47 "Hg10 mi
6:37 AM41 °FClear.14 mph57%30.48 "Hg10 mi
6:17 AM37 °FClear.16 mph65%30.47 "Hg10 mi
5:57 AM39 °FClear.16 mph61%30.47 "Hg10 mi
5:37 AM37 °FClear.18 mph65%30.48 "Hg10 mi
5:17 AM37 °FClear.20 mph65%30.47 "Hg10 mi
4:57 AM37 °FClear.20 mph65%30.47 "Hg10 mi
4:37 AM37 °FClear.18 mph65%30.47 "Hg10 mi
4:17 AM37 °FClear.17 mph65%30.47 "Hg10 mi
3:57 AM39 °FClear.21 mph61%30.47 "Hg10 mi
3:37 AM39 °FClear.24 mph61%30.47 "Hg10 mi
3:17 AM37 °FClear.22 mph65%30.47 "Hg10 mi
2:57 AM39 °FClear.22 mph61%30.47 "Hg10 mi
2:37 AM39 °FClear.18 mph61%30.47 "Hg10 mi
2:17 AM39 °FClear.18 mph61%30.47 "Hg10 mi
1:57 AM41 °FClear.17 mph57%30.47 "Hg10 mi
1:37 AM41 °FClear.18 mph57%30.47 "Hg10 mi
1:17 AM41 °FClear.17 mph57%30.48 "Hg10 mi
12:57 AM39 °FClear.17 mph61%30.48 "Hg10 mi
12:37 AM41 °FClear.20 mph57%30.48 "Hg10 mi
12:17 AM41 °FClear.18 mph57%30.48 "Hg10 mi
11:57 PM
Oct 19
41 °FClear.16 mph57%30.48 "Hg10 mi
9:17 PM41 °FClear.13 mph66%30.48 "Hg10 mi
8:57 PM41 °FPassing clouds.9 mph66%30.47 "Hg10 mi
8:37 PM41 °FPassing clouds.14 mph70%30.47 "Hg10 mi
8:17 PM41 °FPassing clouds.14 mph70%30.47 "Hg10 mi
7:57 PM41 °FPassing clouds.14 mph70%30.47 "Hg10 mi
7:37 PM41 °FPartly cloudy.5 mph66%30.47 "Hg10 mi
7:17 PM41 °FScattered clouds.6 mph70%30.47 "Hg10 mi
6:57 PM41 °FScattered clouds.3 mph70%30.47 "Hg10 mi
6:37 PM41 °FLight snow. Cloudy.7 mph66%30.46 "Hg2 mi
6:17 PM41 °FLight snow. Cloudy.14 mph70%30.46 "Hg7 mi
5:57 PM41 °FLight rain. Cloudy.6 mph70%30.46 "Hg7 mi
5:37 PM41 °FHeavy rain. Mostly cloudy.8 mph70%30.47 "Hg2 mi
4:57 PM48 °FScattered clouds.10 mph46%30.45 "Hg10 mi
4:37 PM52 °FScattered clouds.9 mph41%30.45 "Hg10 mi
4:17 PM52 °FPartly sunny.12 mph41%30.44 "Hg10 mi
3:57 PM50 °FScattered clouds.13 mph43%30.45 "Hg10 mi
3:37 PM52 °FScattered clouds.9 mph44%30.45 "Hg10 mi
3:17 PM46 °FSunny.12 mph50%30.44 "Hg10 mi
2:57 PM46 °FSunny.10 mph46%30.45 "Hg10 mi
2:37 PM45 °FScattered clouds.9 mph53%30.45 "Hg10 mi
2:17 PM46 °FBroken clouds.7 mph46%30.45 "Hg10 mi
1:57 PM46 °FScattered clouds.7 mph40%30.45 "Hg10 mi
1:37 PM46 °FScattered clouds.7 mph40%30.46 "Hg10 mi
1:17 PM50 °FBroken clouds.7 mph35%30.46 "Hg10 mi
12:57 PM52 °FPartly sunny.7 mph35%30.47 "Hg10 mi
12:37 PM54 °FPartly sunny.9 mph35%30.47 "Hg10 mi
12:17 PM54 °FScattered clouds.6 mph38%30.48 "Hg10 mi
Weather by CustomWeather, © 2014

See weather overviewHow to use our weather pages